CGMPW CYQR-CYXE

Flight info

Callsign CGMPW
Flight time 0h 31m
Altitude 24000
Route AMUNA DUNEM7
Aircraft PC24/L-SBDGIRWY/LB2

Departure

Time 2026-04-26 01:42
Airport Regina International Airport (CYQR)

Arrival

Time 2026-04-26 02:14
Airport Saskatoon John G. Diefenbaker International Airport (CYXE)
Time Latitude Longitude Altitude Speed Heading
2026-04-26 01:24 50.43828 -104.65492 1888 ft 0 kts
2026-04-26 01:35 50.43847 -104.65474 1889 ft 10 kts 63°
2026-04-26 01:35 50.43820 -104.65401 1887 ft 8 kts 149°
2026-04-26 01:35 50.43773 -104.65423 1885 ft 8 kts 263°
2026-04-26 01:36 50.43768 -104.65502 1889 ft 17 kts 266°
2026-04-26 01:36 50.43769 -104.65730 1891 ft 14 kts 272°
2026-04-26 01:36 50.43768 -104.65877 1891 ft 13 kts 269°
2026-04-26 01:37 50.43728 -104.66066 1888 ft 9 kts 228°
2026-04-26 01:37 50.43656 -104.66171 1890 ft 17 kts 226°
2026-04-26 01:37 50.43567 -104.66225 1888 ft 14 kts 149°
2026-04-26 01:37 50.43489 -104.66119 1886 ft 16 kts 139°
2026-04-26 01:38 50.43401 -104.65996 1886 ft 18 kts 138°
2026-04-26 01:38 50.43305 -104.65864 1893 ft 18 kts 139°
2026-04-26 01:38 50.43209 -104.65728 1896 ft 19 kts 138°
2026-04-26 01:38 50.43111 -104.65588 1889 ft 20 kts 138°
2026-04-26 01:39 50.42999 -104.65430 1894 ft 24 kts 138°
2026-04-26 01:39 50.42876 -104.65253 1887 ft 24 kts 139°
2026-04-26 01:39 50.42757 -104.65086 1893 ft 22 kts 133°
2026-04-26 01:39 50.42683 -104.64979 1894 ft 0 kts 139°
2026-04-26 01:40 50.42663 -104.64954 1895 ft 7 kts 141°
2026-04-26 01:40 50.42596 -104.64895 1891 ft 15 kts 168°
2026-04-26 01:40 50.42533 -104.64896 1897 ft 0 kts 184°
2026-04-26 01:41 50.42491 -104.64907 1892 ft 18 kts 201°
2026-04-26 01:41 50.42470 -104.65042 1895 ft 14 kts 310°
2026-04-26 01:41 50.42551 -104.65156 1898 ft 33 kts 317°
2026-04-26 01:42 50.42954 -104.65734 1898 ft 119 kts 317°
2026-04-26 01:42 50.43659 -104.66788 2426 ft 142 kts 314°
2026-04-26 01:42 50.44439 -104.67795 3391 ft 149 kts 316°
2026-04-26 01:42 50.45288 -104.68921 4010 ft 171 kts 316°
2026-04-26 01:43 50.46237 -104.70192 4640 ft 188 kts 316°
2026-04-26 01:43 50.47240 -104.71553 4991 ft 183 kts 316°
2026-04-26 01:43 50.48213 -104.72871 4997 ft 189 kts 316°
2026-04-26 01:43 50.49268 -104.74305 5345 ft 224 kts 316°
2026-04-26 01:44 50.50576 -104.76111 5782 ft 277 kts 316°
2026-04-26 01:44 50.52079 -104.78088 6185 ft 268 kts 326°
2026-04-26 01:44 50.53727 -104.78947 6507 ft 247 kts 346°
2026-04-26 01:44 50.55516 -104.79558 6859 ft 271 kts 341°
2026-04-26 01:45 50.57325 -104.80569 7220 ft 284 kts 335°
2026-04-26 01:45 50.59168 -104.81819 7583 ft 291 kts 334°
2026-04-26 01:45 50.61092 -104.83030 7944 ft 296 kts 336°
2026-04-26 01:45 50.62999 -104.84173 8362 ft 296 kts 337°
2026-04-26 01:46 50.64843 -104.85298 8705 ft 282 kts 336°
2026-04-26 01:46 50.66721 -104.86466 9061 ft 291 kts 336°
2026-04-26 01:46 50.68637 -104.87649 9541 ft 292 kts 336°
2026-04-26 01:46 50.70557 -104.88831 10428 ft 300 kts 336°
2026-04-26 01:47 50.72509 -104.90038 11291 ft 304 kts 336°
2026-04-26 01:47 50.74478 -104.91255 12175 ft 305 kts 335°
2026-04-26 01:47 50.76464 -104.92485 13077 ft 308 kts 335°
2026-04-26 01:47 50.78478 -104.93732 13990 ft 313 kts 335°
2026-04-26 01:48 50.80517 -104.94998 14819 ft 316 kts 334°
2026-04-26 01:48 50.82573 -104.96272 15665 ft 319 kts 334°
2026-04-26 01:48 50.84622 -104.97546 16546 ft 320 kts 334°
2026-04-26 01:48 50.86709 -104.98843 17444 ft 325 kts 333°
2026-04-26 01:49 50.88833 -105.00167 18366 ft 329 kts 333°
2026-04-26 01:49 50.90966 -105.01493 19172 ft 330 kts 333°
2026-04-26 01:49 50.93114 -105.02834 20000 ft 332 kts 332°
2026-04-26 01:49 50.95270 -105.04178 20846 ft 332 kts 332°
2026-04-26 01:50 50.97417 -105.05521 21718 ft 331 kts 332°
2026-04-26 01:50 50.99563 -105.06860 22617 ft 330 kts 332°
2026-04-26 01:50 51.01690 -105.08193 23506 ft 328 kts 331°
2026-04-26 01:50 51.03830 -105.09539 23981 ft 335 kts 331°
2026-04-26 01:51 51.06057 -105.10948 24031 ft 352 kts 332°
2026-04-26 01:51 51.08358 -105.12388 24035 ft 362 kts 333°
2026-04-26 01:51 51.10712 -105.13859 24045 ft 363 kts 333°
2026-04-26 01:51 51.13032 -105.15313 24039 ft 363 kts 333°
2026-04-26 01:52 51.15384 -105.16801 24037 ft 364 kts 333°
2026-04-26 01:52 51.17747 -105.18292 24038 ft 366 kts 333°
2026-04-26 01:52 51.20120 -105.19791 24034 ft 366 kts 333°
2026-04-26 01:52 51.22488 -105.21284 24034 ft 365 kts 333°
2026-04-26 01:53 51.24846 -105.22779 24033 ft 364 kts 333°
2026-04-26 01:53 51.27199 -105.24268 24032 ft 363 kts 333°
2026-04-26 01:53 51.29551 -105.25763 24028 ft 366 kts 333°
2026-04-26 01:53 51.31947 -105.27287 24031 ft 371 kts 334°
2026-04-26 01:54 51.34343 -105.28804 24028 ft 369 kts 334°
2026-04-26 01:54 51.36725 -105.30324 24030 ft 369 kts 334°
2026-04-26 01:54 51.39118 -105.31848 24027 ft 369 kts 334°
2026-04-26 01:54 51.41473 -105.33345 24025 ft 369 kts 334°
2026-04-26 01:55 51.43876 -105.34883 23641 ft 371 kts 333°
2026-04-26 01:55 51.46239 -105.36389 23205 ft 362 kts 333°
2026-04-26 01:55 51.48579 -105.37891 22731 ft 361 kts 333°
2026-04-26 01:55 51.50908 -105.39384 22281 ft 359 kts 333°
2026-04-26 01:56 51.53224 -105.40871 21782 ft 359 kts 334°
2026-04-26 01:56 51.55445 -105.42616 21293 ft 352 kts 322°
2026-04-26 01:56 51.57333 -105.45073 20843 ft 347 kts 316°
2026-04-26 01:56 51.59173 -105.47581 20384 ft 345 kts 317°
2026-04-26 01:57 51.61001 -105.50065 19928 ft 342 kts 317°
2026-04-26 01:57 51.62814 -105.52526 19477 ft 340 kts 317°
2026-04-26 01:57 51.64616 -105.54979 19024 ft 338 kts 317°
2026-04-26 01:57 51.66407 -105.57418 18581 ft 336 kts 317°
2026-04-26 01:58 51.68183 -105.59839 18114 ft 333 kts 317°
2026-04-26 01:58 51.69942 -105.62239 17667 ft 329 kts 317°
2026-04-26 01:58 51.71659 -105.64583 17235 ft 326 kts 317°
2026-04-26 01:58 51.73396 -105.66964 16804 ft 329 kts 317°
2026-04-26 01:59 51.75141 -105.69349 16369 ft 327 kts 317°
2026-04-26 01:59 51.76867 -105.71715 15937 ft 323 kts 317°
2026-04-26 01:59 51.78568 -105.74046 15516 ft 319 kts 317°
2026-04-26 01:59 51.80249 -105.76358 15091 ft 317 kts 317°
2026-04-26 02:00 51.81928 -105.78662 14687 ft 315 kts 317°
2026-04-26 02:00 51.83589 -105.80950 14270 ft 313 kts 317°
2026-04-26 02:00 51.85242 -105.83224 13860 ft 311 kts 318°
2026-04-26 02:00 51.86880 -105.85485 13424 ft 308 kts 317°
2026-04-26 02:01 51.88505 -105.87726 13008 ft 305 kts 318°
2026-04-26 02:01 51.90110 -105.89943 12606 ft 302 kts 318°
2026-04-26 02:01 51.91690 -105.92128 12211 ft 299 kts 318°
2026-04-26 02:01 51.93249 -105.94287 11824 ft 296 kts 318°
2026-04-26 02:02 51.94811 -105.96452 11425 ft 294 kts 318°
2026-04-26 02:02 51.96300 -105.98698 11033 ft 290 kts 309°
2026-04-26 02:02 51.97434 -106.01390 10660 ft 289 kts 303°
2026-04-26 02:02 51.98571 -106.04087 10279 ft 291 kts 304°
2026-04-26 02:03 51.99690 -106.06712 9865 ft 269 kts 304°
2026-04-26 02:03 52.00694 -106.09119 9514 ft 246 kts 304°
2026-04-26 02:03 52.01585 -106.11260 9265 ft 219 kts 304°
2026-04-26 02:03 52.02405 -106.13227 8972 ft 203 kts 304°
2026-04-26 02:04 52.03172 -106.15061 8718 ft 190 kts 304°
2026-04-26 02:04 52.03892 -106.16783 8476 ft 180 kts 304°
2026-04-26 02:04 52.04576 -106.18426 8239 ft 171 kts 304°
2026-04-26 02:04 52.05233 -106.20001 8013 ft 165 kts 304°
2026-04-26 02:05 52.05866 -106.21521 7795 ft 160 kts 304°
2026-04-26 02:05 52.06481 -106.23001 7584 ft 156 kts 304°
2026-04-26 02:05 52.07075 -106.24425 7379 ft 152 kts 304°
2026-04-26 02:05 52.07664 -106.25845 7169 ft 153 kts 304°
2026-04-26 02:06 52.08292 -106.27354 6976 ft 171 kts 304°
2026-04-26 02:06 52.08997 -106.29048 6739 ft 187 kts 304°
2026-04-26 02:06 52.09732 -106.30825 6475 ft 190 kts 304°
2026-04-26 02:06 52.10470 -106.32602 6205 ft 187 kts 304°
2026-04-26 02:07 52.11178 -106.34312 5953 ft 182 kts 304°
2026-04-26 02:07 52.11880 -106.36007 5711 ft 179 kts 304°
2026-04-26 02:07 52.12570 -106.37674 5472 ft 176 kts 305°
2026-04-26 02:07 52.13256 -106.39334 5237 ft 177 kts 304°
2026-04-26 02:08 52.13943 -106.41007 4996 ft 177 kts 302°
2026-04-26 02:08 52.14363 -106.42853 4767 ft 172 kts 282°
2026-04-26 02:08 52.14573 -106.44698 4519 ft 159 kts 283°
2026-04-26 02:08 52.14784 -106.46394 4326 ft 144 kts 283°
2026-04-26 02:09 52.14960 -106.47836 4135 ft 121 kts 284°
2026-04-26 02:09 52.15113 -106.49097 3944 ft 107 kts 284°
2026-04-26 02:09 52.15256 -106.50256 3736 ft 104 kts 284°
2026-04-26 02:09 52.15399 -106.51427 3693 ft 105 kts 284°
2026-04-26 02:10 52.15540 -106.52598 3575 ft 105 kts 284°
2026-04-26 02:10 52.15683 -106.53754 3429 ft 103 kts 284°
2026-04-26 02:10 52.15819 -106.54884 3297 ft 103 kts 284°
2026-04-26 02:10 52.15956 -106.56022 3162 ft 102 kts 283°
2026-04-26 02:11 52.16094 -106.57152 3025 ft 102 kts 283°
2026-04-26 02:11 52.16229 -106.58274 2875 ft 101 kts 284°
2026-04-26 02:11 52.16369 -106.59436 2746 ft 104 kts 283°
2026-04-26 02:11 52.16507 -106.60574 2578 ft 102 kts 283°
2026-04-26 02:12 52.16646 -106.61741 2456 ft 105 kts 283°
2026-04-26 02:12 52.16784 -106.62894 2310 ft 103 kts 281°
2026-04-26 02:12 52.16924 -106.64040 2165 ft 103 kts 281°
2026-04-26 02:12 52.17059 -106.65183 2038 ft 102 kts 282°
2026-04-26 02:13 52.17194 -106.66310 1896 ft 103 kts 280°
2026-04-26 02:13 52.17332 -106.67473 1765 ft 106 kts 280°
2026-04-26 02:13 52.17460 -106.68615 1654 ft 100 kts 281°
2026-04-26 02:13 52.17574 -106.69605 1651 ft 69 kts 281°
2026-04-26 02:14 52.17644 -106.70131 1644 ft 32 kts 285°
2026-04-26 02:14 52.17658 -106.70213 1643 ft 6 kts 286°
2026-04-26 02:14 52.17672 -106.70302 1643 ft 7 kts 282°
2026-04-26 02:14 52.17646 -106.70409 1644 ft 20 kts 204°
2026-04-26 02:15 52.17512 -106.70352 1644 ft 19 kts 157°
2026-04-26 02:15 52.17389 -106.70281 1646 ft 18 kts 162°
2026-04-26 02:15 52.17329 -106.70127 1648 ft 17 kts 102°
2026-04-26 02:15 52.17302 -106.69926 1646 ft 20 kts 102°
2026-04-26 02:16 52.17274 -106.69703 1645 ft 20 kts 101°
2026-04-26 02:16 52.17245 -106.69467 1643 ft 22 kts 101°
2026-04-26 02:16 52.17215 -106.69218 1644 ft 22 kts 100°
2026-04-26 02:16 52.17187 -106.68975 1644 ft 21 kts 102°
2026-04-26 02:17 52.17158 -106.68748 1645 ft 20 kts 101°
2026-04-26 02:17 52.17134 -106.68529 1645 ft 19 kts 100°
2026-04-26 02:17 52.17111 -106.68315 1643 ft 19 kts 99°
2026-04-26 02:17 52.17091 -106.68095 1642 ft 19 kts 103°
2026-04-26 02:18 52.17013 -106.67940 1643 ft 17 kts 145°
2026-04-26 02:18 52.16907 -106.67876 1643 ft 16 kts 179°
2026-04-26 02:18 52.16800 -106.67876 1643 ft 14 kts 181°
2026-04-26 02:18 52.16721 -106.67842 1642 ft 12 kts 103°
2026-04-26 02:19 52.16718 -106.67806 1643 ft 0 kts 100°